This is the latest recevied weather packets stored in our database for station/object K3JSE-2. If no packets are shown the sender has not sent any weather packets the latest 10 day(s).
| Time | Temp. | Humidity | Pressure | Rain* | Wind** | Luminosity | Snow |
|---|---|---|---|---|---|---|---|
| 1778192048 | 16.67° C | 38% | 1008.4 hPa | 0 mm | - | - | - |
| 1778191768 | 16.11° C | 44% | 1008.5 hPa | 0 mm | - | - | - |
| 1778191478 | 16.11° C | 40% | 1008.5 hPa | 0 mm | - | - | - |
| 1778191339 | 16.11° C | 40% | 1008.6 hPa | 0 mm | - | - | - |
| 1778191193 | 15.56° C | 40% | 1008.5 hPa | 0 mm | - | - | - |
| 1778190903 | 15.56° C | 42% | 1008.6 hPa | 0 mm | - | - | - |
| 1778190628 | 15.56° C | 40% | 1008.6 hPa | 0 mm | - | - | - |
| 1778190333 | 16.11° C | 38% | 1008.5 hPa | 0 mm | - | - | - |
| 1778190038 | 16.11° C | 40% | 1008.5 hPa | 0 mm | - | - | - |
| 1778189880 | 16.67° C | 38% | 1008.6 hPa | 0 mm | - | - | - |
| 1778189753 | 17.22° C | 38% | 1008.5 hPa | 0 mm | - | - | - |
| 1778189453 | 17.78° C | 37% | 1008.5 hPa | 0 mm | - | - | - |
| 1778189173 | 17.78° C | 36% | 1008.6 hPa | 0 mm | - | - | - |
| 1778189130 | 17.78° C | 41% | 1008.7 hPa | 0 mm | - | - | - |
| 1778188908 | 17.22° C | 41% | 1008.7 hPa | 0 mm | - | - | - |
| 1778188668 | 17.22° C | 37% | 1008.6 hPa | 0 mm | - | - | - |
| 1778188410 | 17.22° C | 35% | 1008.7 hPa | 0 mm | - | - | - |
| 1778188168 | 17.78° C | 38% | 1008.5 hPa | 0 mm | - | - | - |
| 1778187868 | 17.78° C | 37% | 1008.5 hPa | 0 mm | - | - | - |
| 1778187779 | 17.22° C | 38% | 1008.5 hPa | 0 mm | - | - | - |
| 1778187613 | 17.22° C | 35% | 1008.5 hPa | 0 mm | - | - | - |
| 1778187333 | 16.67° C | 37% | 1008.5 hPa | 0 mm | - | - | - |
| 1778187130 | 16.67° C | 36% | 1008.5 hPa | 0 mm | - | - | - |
| 1778187083 | 16.67° C | 40% | 1008.6 hPa | 0 mm | - | - | - |
| 1778186828 | 17.22° C | 38% | 1008.5 hPa | 0 mm | - | - | - |
* Rain latest hour (hover to see other rain measurements)
** Current wind speed in m/s (hover to see current wind gust speed)